This demonstration page uses our WeatherBlox Daily Observations layout. Learn more.

Left ArrowRight Arrow

36.17497, -115.13722

Hourly Observations for March 18, 2021

Temp ( °F °C ) Dew Point ( °F °C ) Humidity (%) Winds ( mph kmh ) Pressure ( in mb ) Visibility ( mi km ) Precip ( " mm )
12:53 am 00:53 Clear 54 12.2 30 -1.1 40 40 Calm 30.08 1019 10 16 0.00 0.00
1:53 am 01:53 Clear 55 12.8 31 -0.6 40 40 Calm 30.08 1019 10 16 0.00 0.00
2:53 am 02:53 Clear 54 12.2 31 -0.6 42 42 Calm 30.07 1018 10 16 0.00 0.00
3:53 am 03:53 Clear 53 11.7 31 -0.6 43 43 W 3 6 30.06 1018 10 16 0.00 0.00
4:53 am 04:53 Clear 53 11.7 31 -0.6 43 43 Calm 30.07 1018 10 16 0.00 0.00
5:53 am 05:53 Clear 52 11.1 31 -0.6 45 45 Calm 30.08 1019 10 16 0.00 0.00
6:53 am 06:53 Sunny 54 12.2 32 0 43 43 Calm 30.10 1019 10 16 0.00 0.00
7:53 am 07:53 Sunny 55 12.8 31 -0.6 40 40 Calm 30.12 1020 10 16 0.00 0.00
8:53 am 08:53 Sunny 56 13.3 31 -0.6 39 39 SSE 5 7 30.14 1021 10 16 0.00 0.00
9:53 am 09:53 Sunny 59 15 32 0 36 36 Calm 30.14 1021 10 16 0.00 0.00
10:53 am 10:53 Sunny 62 16.7 33 0.6 34 34 ESE 5 7 30.15 1021 10 16 0.00 0.00
11:53 am 11:53 Sunny 65 18.3 31 -0.6 28 28 undefined N/A 30.13 1020 10 16 0.00 0.00
12:53 pm 12:53 Sunny 68 20 30 -1.1 24 24 VRB 3 6 30.11 1020 10 16 0.00 0.00
1:53 pm 13:53 Sunny 68 20 26 -3.3 21 21 Calm 30.08 1019 10 16 0.00 0.00
2:53 pm 14:53 Sunny 71 21.7 26 -3.3 19 19 VRB 6 9 30.06 1018 10 16 0.00 0.00
3:53 pm 15:53 Mostly Sunny 72 22.2 25 -3.9 17 17 VRB 6 9 30.04 1017 10 16 0.00 0.00
4:53 pm 16:53 Mostly Cloudy 73 22.8 24 -4.4 16 16 SSE 9 15 30.02 1017 10 16 0.00 0.00
5:53 pm 17:53 Mostly Sunny 73 22.8 23 -5 15 15 ENE 8 13 30.01 1016 10 16 0.00 0.00
6:53 pm 18:53 Clear 70 21.1 23 -5 17 17 ENE 8 13 30.01 1016 10 16 0.00 0.00
7:53 pm 19:53 Clear 68 20 20 -6.7 16 16 ENE 5 7 30.02 1017 10 16 0.00 0.00
8:53 pm 20:53 Clear 66 18.9 22 -5.6 19 19 Calm 30.04 1017 10 16 0.00 0.00
9:53 pm 21:53 Clear 63 17.2 23 -5 22 22 Calm 30.06 1018 10 16 0.00 0.00
10:53 pm 22:53 Clear 61 16.1 28 -2.2 29 29 WNW 5 7 30.06 1018 10 16 0.00 0.00
11:53 pm 23:53 Clear 58 14.4 28 -2.2 32 32 W 5 7 30.06 1018 10 16 0.00 0.00

Powered by AerisWeather